• In Uzbekistan
  • List of Countries
  • For 7 days
  • Water Temperature
  • Weather Map
  • Weather Widgets
  • user-avatar
    Login

    Hourly Weather Rawson

    Today, 25 January, Saturday

    Time Temperature Precipitation Wind Pressure Humidity
    00:00 +23°C° 0 mm 12 mps 753 mmHg 35%
    01:00 +22°C° 0 mm 12 mps 754 mmHg 38%
    02:00 +21°C° 0 mm 12 mps 754 mmHg 41%
    03:00 +18°C° 0 mm 10 mps 754 mmHg 48%
    04:00 +17°C° 0 mm 7 mps 755 mmHg 55%
    05:00 +16°C° 0 mm 5 mps 755 mmHg 61%
    06:00 +18°C° 0 mm 4 mps 756 mmHg 57%
    07:00 +18°C° 0 mm 3 mps 756 mmHg 53%
    08:00 +19°C° 0 mm 2 mps 757 mmHg 49%
    09:00 +21°C° 0 mm 2 mps 757 mmHg 43%
    10:00 +23°C° 0 mm 2 mps 756 mmHg 38%
    11:00 +24°C° 0 mm 2 mps 756 mmHg 33%
    12:00 +26°C° 0 mm 3 mps 756 mmHg 29%
    13:00 +28°C° 0 mm 4 mps 755 mmHg 26%
    14:00 +29°C° 0 mm 4 mps 754 mmHg 22%
    15:00 +30°C° 0 mm 5 mps 753 mmHg 20%
    16:00 +32°C° 0 mm 6 mps 753 mmHg 19%
    17:00 +33°C° 0 mm 7 mps 752 mmHg 17%
    18:00 +32°C° 0 mm 8 mps 752 mmHg 18%
    19:00 +32°C° 0 mm 8 mps 752 mmHg 19%
    20:00 +31°C° 0 mm 8 mps 752 mmHg 20%
    21:00 +29°C° 0 mm 8 mps 752 mmHg 22%
    22:00 +28°C° 0 mm 8 mps 752 mmHg 24%
    23:00 +27°C° 0 mm 8 mps 752 mmHg 26%

    Tomorrow, 26 January, Sunday

    Time Temperature Precipitation Wind Pressure Humidity
    00:00 +26°C° 0 mm 9 mps 752 mmHg 30%
    01:00 +24°C° 0 mm 10 mps 752 mmHg 33%
    02:00 +23°C° 0 mm 11 mps 752 mmHg 36%
    03:00 +22°C° 0 mm 11 mps 752 mmHg 37%
    04:00 +21°C° 0 mm 10 mps 753 mmHg 39%
    05:00 +19°C° 0 mm 10 mps 753 mmHg 40%
    06:00 +19°C° 0 mm 10 mps 754 mmHg 44%
    07:00 +18°C° 0 mm 11 mps 755 mmHg 48%
    08:00 +18°C° 0 mm 12 mps 756 mmHg 52%
    09:00 +18°C° 0 mm 11 mps 757 mmHg 49%
    10:00 +19°C° 0 mm 11 mps 757 mmHg 45%
    11:00 +21°C° 0 mm 10 mps 758 mmHg 41%
    12:00 +19°C° 0 mm 9 mps 759 mmHg 40%
    13:00 +19°C° 0 mm 9 mps 759 mmHg 40%
    14:00 +20°C° 0 mm 8 mps 760 mmHg 39%
    15:00 +20°C° 0 mm 8 mps 760 mmHg 39%
    16:00 +18°C° 0 mm 7 mps 760 mmHg 39%
    17:00 +18°C° 0 mm 7 mps 760 mmHg 39%
    18:00 +17°C° 0 mm 7 mps 760 mmHg 44%
    19:00 +16°C° 0 mm 6 mps 760 mmHg 48%
    20:00 +15°C° 0 mm 6 mps 760 mmHg 52%
    21:00 +14°C° 0 mm 6 mps 760 mmHg 54%
    22:00 +14°C° 0 mm 6 mps 761 mmHg 56%
    23:00 +13°C° 0 mm 5 mps 761 mmHg 59%

    Day after tomorrow, 27 January, Monday

    Time Temperature Precipitation Wind Pressure Humidity
    00:00 +13°C° 0 mm 6 mps 761 mmHg 58%
    01:00 +13°C° 0 mm 6 mps 761 mmHg 57%
    02:00 +13°C° 0 mm 6 mps 761 mmHg 56%
    03:00 +12°C° 0 mm 7 mps 760 mmHg 58%
    04:00 +12°C° 0 mm 7 mps 760 mmHg 59%
    05:00 +13°C° 0 mm 8 mps 760 mmHg 61%
    06:00 +16°C° 0 mm 9 mps 759 mmHg 51%
    07:00 +18°C° 0 mm 10 mps 759 mmHg 42%
    08:00 +21°C° 0 mm 12 mps 758 mmHg 33%
    09:00 +23°C° 0 mm 10 mps 758 mmHg 28%
    10:00 +27°C° 0 mm 9 mps 757 mmHg 24%
    11:00 +29°C° 0 mm 8 mps 756 mmHg 19%
    12:00 +32°C° 0 mm 7 mps 755 mmHg 17%
    13:00 +33°C° 0 mm 7 mps 755 mmHg 15%
    14:00 +34°C° 0 mm 7 mps 754 mmHg 13%
    15:00 +35°C° 0 mm 7 mps 753 mmHg 12%
    16:00 +35°C° 0 mm 7 mps 752 mmHg 11%
    17:00 +35°C° 0 mm 7 mps 751 mmHg 11%
    18:00 +34°C° 0 mm 6 mps 750 mmHg 13%
    19:00 +32°C° 0 mm 6 mps 750 mmHg 16%
    20:00 +30°C° 0 mm 5 mps 750 mmHg 18%
    21:00 +29°C° 0 mm 6 mps 750 mmHg 22%
    22:00 +28°C° 0 mm 7 mps 750 mmHg 26%
    23:00 +27°C° 0 mm 8 mps 750 mmHg 30%

    28 January, Tuesday

    Time Temperature Precipitation Wind Pressure Humidity
    00:00 +26°C° 0 mm 8 mps 750 mmHg 33%
    01:00 +24°C° 0 mm 8 mps 750 mmHg 36%
    02:00 +23°C° 0 mm 8 mps 750 mmHg 39%
    03:00 +23°C° 0 mm 8 mps 751 mmHg 38%
    04:00 +23°C° 0 mm 7 mps 751 mmHg 37%
    05:00 +23°C° 0 mm 7 mps 751 mmHg 36%
    06:00 +23°C° 0 mm 8 mps 751 mmHg 35%
    07:00 +23°C° 0 mm 8 mps 751 mmHg 34%
    08:00 +23°C° 0 mm 9 mps 751 mmHg 32%
    09:00 +24°C° 0 mm 8 mps 751 mmHg 31%
    10:00 +26°C° 0 mm 8 mps 751 mmHg 29%
    11:00 +27°C° 0 mm 8 mps 751 mmHg 27%
    12:00 +27°C° 0 mm 8 mps 751 mmHg 26%
    13:00 +27°C° 0 mm 8 mps 751 mmHg 26%
    14:00 +27°C° 0 mm 9 mps 750 mmHg 25%
    15:00 +26°C° 0 mm 8 mps 750 mmHg 32%
    16:00 +23°C° 0 mm 8 mps 750 mmHg 39%
    17:00 +22°C° 0 mm 7 mps 750 mmHg 46%
    18:00 +20°C° 0 mm 7 mps 751 mmHg 50%
    19:00 +18°C° 0 mm 7 mps 751 mmHg 54%
    20:00 +17°C° 0 mm 7 mps 751 mmHg 58%
    21:00 +16°C° 0 mm 5 mps 752 mmHg 59%
    22:00 +16°C° 0 mm 3 mps 753 mmHg 60%
    23:00 +15°C° 0 mm 1 mps 754 mmHg 61%

    29 January, Wednesday

    Time Temperature Precipitation Wind Pressure Humidity
    00:00 +15°C° 0 mm 2 mps 754 mmHg 57%
    01:00 +15°C° 0 mm 2 mps 754 mmHg 53%
    02:00 +14°C° 0 mm 3 mps 755 mmHg 48%
    03:00 +13°C° 0 mm 3 mps 755 mmHg 48%
    04:00 +12°C° 0 mm 3 mps 756 mmHg 48%
    05:00 +13°C° 0 mm 2 mps 756 mmHg 47%
    06:00 +14°C° 0 mm 3 mps 757 mmHg 42%
    07:00 +17°C° 0 mm 4 mps 757 mmHg 37%
    08:00 +19°C° 0 mm 4 mps 757 mmHg 32%
    09:00 +20°C° 0 mm 4 mps 757 mmHg 29%
    10:00 +21°C° 0 mm 3 mps 758 mmHg 25%
    11:00 +22°C° 0 mm 3 mps 758 mmHg 22%
    12:00 +24°C° 0 mm 3 mps 757 mmHg 21%
    13:00 +25°C° 0 mm 3 mps 757 mmHg 19%
    14:00 +26°C° 0 mm 4 mps 756 mmHg 17%
    15:00 +26°C° 0 mm 4 mps 756 mmHg 17%
    16:00 +26°C° 0 mm 4 mps 755 mmHg 17%
    17:00 +27°C° 0 mm 5 mps 755 mmHg 17%
    18:00 +25°C° 0 mm 5 mps 755 mmHg 19%
    19:00 +22°C° 0 mm 5 mps 754 mmHg 22%
    20:00 +20°C° 0 mm 6 mps 754 mmHg 24%
    21:00 +20°C° 0 mm 7 mps 754 mmHg 29%
    22:00 +18°C° 0 mm 8 mps 754 mmHg 33%
    23:00 +18°C° 0 mm 9 mps 754 mmHg 37%

    30 January, Thursday

    Time Temperature Precipitation Wind Pressure Humidity
    00:00 +19°C° 0 mm 9 mps 753 mmHg 34%
    01:00 +19°C° 0 mm 9 mps 753 mmHg 31%
    02:00 +20°C° 0 mm 8 mps 753 mmHg 27%
    03:00 +18°C° 0 mm 8 mps 753 mmHg 27%
    04:00 +18°C° 0 mm 7 mps 752 mmHg 26%
    05:00 +17°C° 0 mm 6 mps 752 mmHg 26%
    06:00 +20°C° 0 mm 8 mps 752 mmHg 26%
    07:00 +22°C° 0 mm 9 mps 752 mmHg 26%
    08:00 +24°C° 0 mm 11 mps 752 mmHg 27%
    09:00 +26°C° 0 mm 11 mps 751 mmHg 25%
    10:00 +28°C° 0 mm 11 mps 751 mmHg 24%
    11:00 +29°C° 0 mm 11 mps 751 mmHg 23%
    12:00 +32°C° 0 mm 12 mps 750 mmHg 22%
    13:00 +33°C° 0 mm 12 mps 750 mmHg 21%
    14:00 +34°C° 0 mm 12 mps 749 mmHg 20%
    15:00 +33°C° 0 mm 13 mps 749 mmHg 20%
    16:00 +33°C° 0 mm 13 mps 748 mmHg 21%
    17:00 +32°C° 0 mm 14 mps 748 mmHg 21%
    18:00 +31°C° 0 mm 13 mps 748 mmHg 23%
    19:00 +28°C° 0 mm 12 mps 749 mmHg 25%
    20:00 +27°C° 0 mm 10 mps 749 mmHg 26%
    21:00 +26°C° 0 mm 11 mps 750 mmHg 26%
    22:00 +23°C° 0 mm 12 mps 750 mmHg 27%
    23:00 +22°C° 0 mm 13 mps 751 mmHg 27%
    Show more